          19 20  12 13.15  -03 29.6   2.956  3.000    15.2 / 121  16.6  155  .76

          20 20  12 14.01  -03 37.5   2.930  2.989    15.1 / 121  16.6  141  .85

          21 20  12 14.88  -03 45.3   2.904  2.977    15.0 / 122  16.6  126  .93

          22 20  12 15.73  -03 53.2   2.878  2.965    15.0 / 122  16.5  112  .98

          23 20  12 16.58  -04 01.1   2.852  2.953    14.9 / 122  16.5   97 1.00

          24 20  12 17.43  -04 08.9   2.826  2.941    14.8 / 122  16.4   83  .99

          25 20  12 18.27  -04 16.8   2.800  2.929    14.7 / 122  16.4   68  .96

          26 20  12 19.10  -04 24.6   2.774  2.917    14.6 / 122  16.4   55  .90

          27 20  12 19.92  -04 32.5   2.748  2.905    14.6 / 123  16.3   41  .82

          28 20  12 20.74  -04 40.4   2.721  2.893    14.5 / 123  16.3   28  .74

          29 20  12 21.56  -04 48.2   2.695  2.881    14.4 / 123  16.2   16  .64

          30 20  12 22.36  -04 56.1   2.669  2.869    14.3 / 123  16.2    4  .55

          31 20  12 23.16  -05 04.0   2.643  2.857    14.2 / 124  16.2    8  .45

2008 Jan.  1 20  12 23.95  -05 11.8   2.617  2.845    14.1 / 124  16.1   20  .36

NAKANO

         **** Don't distribute anyone except personal use only ****

                (C) Copyright 2007 OAA/ComputingSection

write mail from CFAD0::NAKANO on 2007-12-02 07:17:35(JST).

 



    C/2007 W1 (Boattini)

T 2008 June 14.29853 TT                                 Nakano

q   0.7201060            (2000.0)            P               Q

                   Peri.  310.98258     +0.27365374     +0.95873142

                   Node   334.58530     -0.81967754     +0.19050744

e   1.0            Incl.   10.35229     -0.50323192     +0.21104736

From 32 observations 2007 Nov. 20-23.



NAKANO

         **** Don't distribute anyone except personal use only ****

                (C) Copyright 2007 OAA/ComputingSection

write mail from CFAD0::NAKANO on 2007-11-30 09:05:11(JST).

 





戻ります。